This is the latest recevied weather packets stored in our database for station/object WK7G. If no packets are shown the sender has not sent any weather packets the latest 10 day(s).
| Time | Temp. | Humidity | Pressure | Rain* | Wind** | Luminosity | Snow |
|---|---|---|---|---|---|---|---|
| 1777524823 | -0.56° C | 88% | 1015.1 hPa | 0 mm | - | 0 W/m² | - |
| 1777524521 | -0.56° C | 87% | 1014.9 hPa | 0 mm | - | 0 W/m² | - |
| 1777524218 | 0° C | 88% | 1015.1 hPa | 0 mm | - | 0 W/m² | - |
| 1777523919 | 0° C | 88% | 1015.4 hPa | 0 mm | - | 0 W/m² | - |
| 1777523616 | 0° C | 88% | 1015.2 hPa | 0 mm | - | 0 W/m² | - |
| 1777523312 | 0° C | 88% | 1015.1 hPa | 0 mm | - | 0 W/m² | - |
| 1777523008 | 0° C | 88% | 1015.2 hPa | 0 mm | - | 0 W/m² | - |
| 1777522706 | 0° C | 87% | 1015.2 hPa | 0 mm | - | 0 W/m² | - |
| 1777522402 | 0° C | 87% | 1015.1 hPa | 0 mm | - | 0 W/m² | - |
| 1777522099 | 0° C | 87% | 1014.9 hPa | 0 mm | - | 0 W/m² | - |
| 1777521796 | 0.56° C | 87% | 1015.2 hPa | 0 mm | - | 0 W/m² | - |
| 1777521492 | 0.56° C | 86% | 1014.9 hPa | 0 mm | - | 0 W/m² | - |
| 1777521189 | 0.56° C | 86% | 1014.8 hPa | 0 mm | - | 0 W/m² | - |
| 1777520887 | 0.56° C | 87% | 1014.9 hPa | 0 mm | - | 0 W/m² | - |
| 1777520584 | 0.56° C | 86% | 1014.7 hPa | 0 mm | - | 0 W/m² | - |
| 1777520280 | 0.56° C | 86% | 1014.9 hPa | 0 mm | - | 0 W/m² | - |
| 1777519979 | 1.11° C | 85% | 1014.7 hPa | 0 mm | - | 0 W/m² | - |
| 1777519675 | 1.11° C | 85% | 1014.6 hPa | 0 mm | - | 0 W/m² | - |
| 1777519371 | 0.56° C | 85% | 1014.7 hPa | 0 mm | - | 0 W/m² | - |
| 1777519068 | 0.56° C | 85% | 1014.7 hPa | 0 mm | - | 0 W/m² | - |
| 1777518764 | 1.11° C | 83% | 1014.5 hPa | 0 mm | - | 0 W/m² | - |
| 1777518461 | 2.22° C | 82% | 1014.3 hPa | 0 mm | - | 0 W/m² | - |
| 1777518156 | 2.22° C | 81% | 1014.5 hPa | 0 mm | - | 0 W/m² | - |
| 1777517852 | 2.22° C | 80% | 1014.2 hPa | 0 mm | - | 0 W/m² | - |
| 1777517548 | 2.78° C | 80% | 1014.5 hPa | 0 mm | - | 0 W/m² | - |
* Rain latest hour (hover to see other rain measurements)
** Current wind speed in m/s (hover to see current wind gust speed)